User: anonymous   Login
Location: Unspecified
(0.0000°N, 0.0000°E)
Time: 21:20:11
(UTC+00:00)
Language:

ONEWEB-0096 - Orbit

View from above orbital plane
View from above orbital plane
View from above satellite
View from above satellite

Ground track
Ground track

The orbit is defined by the following mean orbital elements,

1 45439U          26145.62558981 +.00000000 +00000-0 -10443-2 0 00005
2 45439  87.8920  25.5498 0001866  81.3945 278.7394 13.11418285    09
Epoch (UTC): 25 May 2026 15:00:50
Eccentricity: 0.0001866
inclination: 87.8920°
perigee height: 1216 km
apogee height: 1219 km
right ascension of ascending node: 25.5498°
argument of perigee: 81.3945°
revolutions per day: 13.11418285
mean anomaly at epoch: 278.7394°

The dashed part of the orbit path shows where the satellite is in the earth's shadow,  

DLR